| time (UTC) | temp F | wind direction | speed knots | gust knots | rain 1hr in | rain 24hr in | rain mn in | humidity % | barometer mb |
| 20260507040601 | 40 | 277 | 0.0 | 3.5 | 0.00 | 0.00 | 0.00 | 89 | 1009.5 |
| 20260507040057 | 40 | 0 | 0.0 | 3.5 | 0.00 | 0.00 | 0.00 | 89 | 1009.7 |
| 20260507035559 | 40 | 0 | 0.0 | 3.5 | 0.00 | 0.00 | 0.00 | 89 | 1009.8 |
| 20260507035059 | 40 | 255 | 0.0 | 2.6 | 0.00 | 0.00 | 0.00 | 89 | 1009.8 |
| 20260507034604 | 40 | 0 | 0.0 | 3.5 | 0.00 | 0.00 | 0.00 | 89 | 1009.8 |
| 20260507034058 | 40 | 0 | 0.9 | 3.5 | 0.00 | 0.00 | 0.00 | 89 | 1009.7 |
| 20260507033559 | 40 | 266 | 0.9 | 2.6 | 0.00 | 0.00 | 0.00 | 89 | 1009.7 |
| 20260507033057 | 40 | 0 | 0.0 | 2.6 | 0.00 | 0.00 | 0.00 | 89 | 1009.5 |
| 20260507032559 | 40 | 250 | 0.0 | 2.6 | 0.00 | 0.00 | 0.00 | 89 | 1009.6 |
| 20260507032059 | 40 | 0 | 0.9 | 3.5 | 0.00 | 0.00 | 0.00 | 89 | 1009.5 |
| 20260507031557 | 40 | 270 | 0.9 | 3.5 | 0.00 | 0.00 | 0.00 | 89 | 1009.7 |
| 20260507031103 | 40 | 237 | 0.9 | 3.5 | 0.00 | 0.00 | 0.00 | 89 | 1010.0 |
| 20260507030600 | 40 | 268 | 0.9 | 3.5 | 0.00 | 0.00 | 0.00 | 89 | 1009.9 |
| 20260507030107 | 40 | 265 | 0.9 | 3.5 | 0.00 | 0.00 | 0.00 | 89 | 1009.7 |
| 20260507025559 | 40 | 274 | 0.9 | 3.5 | 0.00 | 0.00 | 0.00 | 89 | 1009.7 |
| 20260507025059 | 40 | 280 | 0.9 | 3.5 | 0.00 | 0.00 | 0.00 | 89 | 1009.8 |
| 20260507024612 | 40 | 268 | 0.9 | 3.5 | 0.00 | 0.00 | 0.00 | 89 | 1009.9 |
| 20260507024102 | 40 | 278 | 0.0 | 3.5 | 0.00 | 0.00 | 0.00 | 89 | 1009.9 |
| 20260507023604 | 40 | 324 | 0.9 | 3.5 | 0.00 | 0.00 | 0.00 | 89 | 1010.0 |
| 20260507023057 | 40 | 0 | 0.9 | 5.2 | 0.00 | 0.00 | 0.00 | 89 | 1010.0 |
| 20260507022559 | 40 | 267 | 2.6 | 5.2 | 0.00 | 0.00 | 0.00 | 89 | 1010.1 |
| 20260507022059 | 40 | 304 | 0.0 | 2.6 | 0.00 | 0.00 | 0.00 | 89 | 1010.0 |
| 20260507021616 | 40 | 323 | 0.9 | 3.5 | 0.00 | 0.00 | 0.00 | 89 | 1010.1 |
| 20260507021101 | 40 | 274 | 1.7 | 3.5 | 0.00 | 0.00 | 0.00 | 89 | 1010.1 |
| 20260507020559 | 40 | 294 | 0.0 | 3.5 | 0.00 | 0.00 | 0.00 | 89 | 1010.1 |
| 20260507020106 | 40 | 0 | 0.0 | 3.5 | 0.00 | 0.00 | 0.00 | 89 | 1010.0 |
| 20260507015601 | 40 | 0 | 1.7 | 4.3 | 0.00 | 0.00 | 0.00 | 89 | 1010.0 |
| 20260507015103 | 40 | 241 | 1.7 | 4.3 | 0.00 | 0.00 | 0.00 | 89 | 1010.0 |
| 20260507014616 | 40 | 250 | 0.9 | 4.3 | 0.00 | 0.00 | 0.00 | 89 | 1010.0 |
| 20260507014059 | 40 | 276 | 0.9 | 3.5 | 0.00 | 0.00 | 0.00 | 89 | 1009.9 |
| 20260507013559 | 41 | 0 | 0.0 | 3.5 | 0.00 | 0.00 | 0.00 | 89 | 1009.8 |
| 20260507013100 | 41 | 0 | 0.0 | 3.5 | 0.00 | 0.00 | 0.00 | 89 | 1010.0 |
| 20260507012607 | 41 | 267 | 0.0 | 3.5 | 0.00 | 0.00 | 0.00 | 89 | 1010.0 |
| 20260507012100 | 41 | 289 | 1.7 | 4.3 | 0.00 | 0.00 | 0.00 | 89 | 1010.0 |
| 20260507011559 | 41 | 247 | 0.9 | 4.3 | 0.00 | 0.00 | 0.00 | 89 | 1010.0 |
| 20260507011100 | 41 | 0 | 1.7 | 6.1 | 0.00 | 0.00 | 0.00 | 89 | 1010.0 |
| 20260507010602 | 41 | 253 | 1.7 | 6.1 | 0.00 | 0.00 | 0.00 | 88 | 1009.9 |
| 20260507010115 | 41 | 246 | 0.9 | 3.5 | 0.00 | 0.00 | 0.00 | 89 | 1009.7 |
| 20260507005600 | 41 | 216 | 0.9 | 1.7 | 0.00 | 0.00 | 0.00 | 89 | 1009.4 |
| 20260507005101 | 42 | 28 | 0.0 | 2.6 | 0.00 | 0.00 | 0.00 | 89 | 1009.2 |
| 20260507004558 | 42 | 0 | 0.9 | 2.6 | 0.00 | 0.00 | 0.00 | 88 | 1009.3 |
| 20260507004059 | 42 | 288 | 0.9 | 2.6 | 0.00 | 0.00 | 0.00 | 88 | 1009.4 |
| 20260507003559 | 42 | 0 | 0.9 | 2.6 | 0.00 | 0.00 | 0.00 | 88 | 1009.4 |
| 20260507003056 | 42 | 285 | 0.0 | 2.6 | 0.00 | 0.00 | 0.00 | 88 | 1009.3 |
| 20260507002558 | 42 | 0 | 0.0 | 5.2 | 0.00 | 0.00 | 0.00 | 88 | 1009.3 |
| 20260507002059 | 42 | 0 | 0.9 | 7.0 | 0.00 | 0.00 | 0.00 | 87 | 1009.1 |
| 20260507001605 | 42 | 344 | 2.6 | 7.0 | 0.00 | 0.00 | 0.00 | 88 | 1009.2 |
| 20260507001101 | 42 | 0 | 0.9 | 4.3 | 0.00 | 0.00 | 0.00 | 88 | 1009.2 |
| 20260507000559 | 42 | 11 | 0.9 | 7.0 | 0.00 | 0.00 | 0.00 | 88 | 1009.2 |
| 20260507000056 | 43 | 295 | 1.7 | 7.0 | 0.00 | 0.00 | 0.00 | 88 | 1009.3 |
| 20260506235600 | 43 | 335 | 1.7 | 7.8 | 0.00 | 0.00 | 0.00 | 88 | 1009.2 |
| 20260506235058 | 43 | 242 | 1.7 | 7.8 | 0.00 | 0.00 | 0.00 | 88 | 1009.2 |
| 20260506234559 | 43 | 262 | 0.9 | 7.0 | 0.00 | 0.00 | 0.00 | 88 | 1009.1 |
| 20260506234059 | 43 | 269 | 2.6 | 7.0 | 0.00 | 0.00 | 0.00 | 88 | 1009.0 |
| 20260506233559 | 43 | 265 | 1.7 | 4.3 | 0.00 | 0.00 | 0.00 | 88 | 1009.1 |
| 20260506233059 | 43 | 321 | 1.7 | 7.0 | 0.00 | 0.00 | 0.00 | 88 | 1009.1 |
| 20260506232558 | 43 | 0 | 1.7 | 9.6 | 0.00 | 0.00 | 0.00 | 88 | 1009.0 |
| 20260506232059 | 43 | 241 | 2.6 | 9.6 | 0.00 | 0.00 | 0.00 | 88 | 1009.0 |
| 20260506231559 | 43 | 5 | 1.7 | 7.0 | 0.00 | 0.00 | 0.00 | 88 | 1009.0 |
| 20260506231059 | 43 | 271 | 2.6 | 5.2 | 0.00 | 0.00 | 0.00 | 88 | 1009.0 |
| 20260506230600 | 44 | 271 | 0.9 | 4.3 | 0.00 | 0.00 | 0.00 | 88 | 1008.9 |
| 20260506230105 | 44 | 292 | 1.7 | 4.3 | 0.00 | 0.00 | 0.00 | 88 | 1008.7 |
| 20260506225559 | 44 | 289 | 0.0 | 3.5 | 0.00 | 0.00 | 0.00 | 89 | 1008.7 |
| 20260506225059 | 44 | 285 | 0.9 | 4.3 | 0.00 | 0.00 | 0.00 | 89 | 1008.5 |
| 20260506224601 | 44 | 0 | 0.9 | 4.3 | 0.00 | 0.00 | 0.00 | 89 | 1008.4 |
| 20260506224101 | 44 | 298 | 1.7 | 4.3 | 0.00 | 0.00 | 0.00 | 89 | 1008.3 |
| 20260506223559 | 44 | 332 | 2.6 | 4.3 | 0.00 | 0.00 | 0.00 | 89 | 1008.1 |
| 20260506223057 | 44 | 352 | 0.0 | 5.2 | 0.00 | 0.00 | 0.00 | 89 | 1008.1 |
| 20260506222559 | 44 | 298 | 1.7 | 5.2 | 0.00 | 0.00 | 0.00 | 89 | 1008.2 |
| 20260506222059 | 44 | 283 | 0.9 | 5.2 | 0.00 | 0.00 | 0.00 | 89 | 1008.3 |
| 20260506221600 | 44 | 302 | 0.9 | 2.6 | 0.00 | 0.00 | 0.00 | 89 | 1008.1 |
| 20260506221101 | 44 | 0 | 0.9 | 2.6 | 0.00 | 0.00 | 0.00 | 89 | 1008.0 |
| 20260506220559 | 44 | 289 | 0.0 | 4.3 | 0.00 | 0.00 | 0.00 | 89 | 1008.0 |
| 20260506220057 | 44 | 288 | 0.9 | 4.3 | 0.00 | 0.00 | 0.00 | 89 | 1007.8 |
| 20260506215558 | 44 | 309 | 0.9 | 4.3 | 0.00 | 0.00 | 0.00 | 89 | 1007.9 |
| 20260506215058 | 44 | 332 | 1.7 | 4.3 | 0.00 | 0.00 | 0.00 | 89 | 1007.8 |
| 20260506214557 | 44 | 329 | 0.9 | 3.5 | 0.00 | 0.00 | 0.00 | 90 | 1007.8 |
| 20260506214059 | 44 | 15 | 1.7 | 4.3 | 0.00 | 0.00 | 0.00 | 90 | 1007.8 |
| 20260506213559 | 44 | 360 | 1.7 | 7.0 | 0.00 | 0.00 | 0.00 | 90 | 1007.7 |
| 20260506213059 | 44 | 282 | 1.7 | 7.0 | 0.00 | 0.00 | 0.00 | 90 | 1007.8 |
| 20260506212559 | 44 | 334 | 0.9 | 6.1 | 0.00 | 0.00 | 0.00 | 90 | 1007.8 |
| 20260506212059 | 44 | 318 | 1.7 | 7.0 | 0.00 | 0.00 | 0.00 | 90 | 1007.7 |
| 20260506211558 | 44 | 325 | 1.7 | 7.0 | 0.00 | 0.00 | 0.00 | 90 | 1007.7 |
| 20260506211059 | 44 | 296 | 2.6 | 7.0 | 0.00 | 0.00 | 0.00 | 90 | 1007.7 |
| 20260506210559 | 44 | 294 | 1.7 | 6.1 | 0.00 | 0.00 | 0.00 | 90 | 1007.6 |
| 20260506210100 | 44 | 342 | 1.7 | 6.1 | 0.00 | 0.00 | 0.00 | 90 | 1007.6 |
| 20260506205603 | 44 | 275 | 0.9 | 4.3 | 0.00 | 0.00 | 0.00 | 90 | 1007.5 |
| 20260506205059 | 44 | 323 | 0.0 | 5.2 | 0.00 | 0.00 | 0.00 | 90 | 1007.5 |
| 20260506204559 | 44 | 324 | 1.7 | 5.2 | 0.00 | 0.00 | 0.00 | 90 | 1007.4 |
| 20260506204059 | 44 | 331 | 1.7 | 5.2 | 0.00 | 0.00 | 0.00 | 90 | 1007.4 |
| 20260506203558 | 44 | 304 | 1.7 | 4.3 | 0.00 | 0.00 | 0.00 | 90 | 1007.4 |
| 20260506203056 | 44 | 294 | 0.9 | 4.3 | 0.00 | 0.00 | 0.00 | 90 | 1007.4 |
| 20260506202559 | 44 | 0 | 0.9 | 4.3 | 0.00 | 0.00 | 0.00 | 90 | 1007.3 |
| 20260506202059 | 44 | 300 | 0.0 | 4.3 | 0.00 | 0.00 | 0.00 | 90 | 1007.2 |
| 20260506201622 | 44 | 336 | 1.7 | 4.3 | 0.00 | 0.00 | 0.00 | 90 | 1007.2 |
| 20260506201059 | 44 | 350 | 0.9 | 3.5 | 0.00 | 0.00 | 0.00 | 90 | 1007.1 |
| 20260506200559 | 44 | 326 | 1.7 | 3.5 | 0.00 | 0.00 | 0.00 | 90 | 1007.2 |
| 20260506200058 | 45 | 322 | 0.9 | 5.2 | 0.00 | 0.00 | 0.00 | 90 | 1007.2 |
| 20260506195559 | 45 | 327 | 0.0 | 5.2 | 0.00 | 0.00 | 0.00 | 90 | 1007.2 |
| 20260506195059 | 44 | 327 | 1.7 | 5.2 | 0.00 | 0.00 | 0.00 | 90 | 1007.2 |
| 20260506194557 | 44 | 313 | 1.7 | 4.3 | 0.00 | 0.00 | 0.00 | 90 | 1007.4 |
| 20260506194101 | 44 | 360 | 1.7 | 5.2 | 0.00 | 0.00 | 0.00 | 90 | 1007.4 |
| 20260506193559 | 44 | 315 | 1.7 | 5.2 | 0.00 | 0.00 | 0.00 | 90 | 1007.3 |
| 20260506193058 | 45 | 349 | 1.7 | 4.3 | 0.00 | 0.00 | 0.00 | 90 | 1007.1 |
| 20260506192558 | 45 | 341 | 1.7 | 4.3 | 0.00 | 0.00 | 0.00 | 90 | 1007.0 |
| 20260506192058 | 44 | 0 | 0.9 | 3.5 | 0.00 | 0.00 | 0.00 | 90 | 1007.0 |
| 20260506191601 | 44 | 325 | 1.7 | 3.5 | 0.00 | 0.00 | 0.00 | 90 | 1007.2 |
| 20260506191059 | 44 | 297 | 0.9 | 2.6 | 0.00 | 0.00 | 0.00 | 90 | 1007.0 |
| 20260506190559 | 44 | 0 | 0.0 | 1.7 | 0.00 | 0.00 | 0.00 | 90 | 1006.8 |
| 20260506185559 | 44 | 297 | 0.9 | 2.6 | 0.00 | 0.00 | 0.00 | 90 | 1007.0 |
| 20260506185059 | 44 | 311 | 0.9 | 2.6 | 0.00 | 0.00 | 0.00 | 90 | 1007.1 |
| 20260506184603 | 44 | 360 | 0.0 | 3.5 | 0.00 | 0.00 | 0.00 | 90 | 1007.0 |
| 20260506184059 | 44 | 5 | 0.9 | 3.5 | 0.00 | 0.00 | 0.00 | 90 | 1007.0 |
| 20260506183559 | 44 | 15 | 0.9 | 2.6 | 0.00 | 0.00 | 0.00 | 90 | 1006.9 |
| 20260506183101 | 43 | 78 | 0.0 | 1.7 | 0.00 | 0.00 | 0.00 | 90 | 1006.8 |
| 20260506182558 | 43 | 0 | 0.9 | 3.5 | 0.00 | 0.00 | 0.00 | 90 | 1006.7 |
| 20260506182058 | 43 | 0 | 0.0 | 3.5 | 0.00 | 0.00 | 0.00 | 90 | 1006.7 |
| 20260506181601 | 43 | 0 | 1.7 | 3.5 | 0.00 | 0.00 | 0.00 | 90 | 1006.9 |
| 20260506181059 | 43 | 0 | 0.0 | 2.6 | 0.00 | 0.00 | 0.00 | 90 | 1006.9 |
| 20260506180559 | 43 | 0 | 0.0 | 2.6 | 0.00 | 0.00 | 0.00 | 90 | 1007.0 |
| 20260506175559 | 43 | 38 | 0.0 | 2.6 | 0.00 | 0.00 | 0.00 | 90 | 1007.0 |
| 20260506175058 | 43 | 0 | 0.0 | 2.6 | 0.00 | 0.00 | 0.00 | 90 | 1006.9 |
| 20260506174559 | 43 | 0 | 0.0 | 3.5 | 0.00 | 0.00 | 0.00 | 90 | 1007.0 |
| 20260506174058 | 43 | 0 | 0.0 | 3.5 | 0.00 | 0.00 | 0.00 | 90 | 1007.0 |
| 20260506173559 | 43 | 38 | 0.0 | 3.5 | 0.00 | 0.00 | 0.00 | 90 | 1006.9 |
| 20260506173128 | 43 | 341 | 0.9 | 3.5 | 0.00 | 0.00 | 0.00 | 90 | 1007.0 |
| 20260506172559 | 42 | 51 | 0.9 | 3.5 | 0.00 | 0.00 | 0.00 | 90 | 1007.0 |
| 20260506172059 | 42 | 103 | 1.7 | 3.5 | 0.00 | 0.00 | 0.00 | 90 | 1007.1 |
| 20260506171600 | 42 | 0 | 0.0 | 2.6 | 0.00 | 0.00 | 0.00 | 90 | 1007.2 |
| 20260506171058 | 42 | 0 | 1.7 | 3.5 | 0.00 | 0.00 | 0.00 | 91 | 1007.2 |
| 20260506170602 | 42 | 32 | 0.9 | 3.5 | 0.00 | 0.00 | 0.00 | 91 | 1007.3 |
| 20260506170056 | 42 | 0 | 0.0 | 3.5 | 0.00 | 0.00 | 0.00 | 90 | 1007.2 |
| 20260506165559 | 42 | 73 | 0.9 | 3.5 | 0.00 | 0.00 | 0.00 | 90 | 1007.2 |
| 20260506165059 | 42 | 110 | 0.0 | 2.6 | 0.00 | 0.00 | 0.00 | 90 | 1007.2 |
| 20260506164559 | 42 | 117 | 0.9 | 2.6 | 0.00 | 0.00 | 0.00 | 90 | 1007.2 |
| 20260506164100 | 42 | 119 | 0.0 | 3.5 | 0.00 | 0.00 | 0.00 | 90 | 1007.4 |
| 20260506163558 | 42 | 119 | 0.9 | 5.2 | 0.00 | 0.00 | 0.00 | 90 | 1007.4 |
| 20260506163104 | 41 | 103 | 1.7 | 5.2 | 0.00 | 0.00 | 0.00 | 90 | 1007.5 |
| 20260506162559 | 41 | 121 | 0.0 | 2.6 | 0.00 | 0.00 | 0.00 | 90 | 1007.6 |
| 20260506162058 | 42 | 0 | 0.0 | 0.0 | 0.00 | 0.00 | 0.00 | 90 | 1007.8 |
| 20260506161604 | 41 | 0 | 0.0 | 1.7 | 0.00 | 0.00 | 0.00 | 90 | 1007.9 |
| 20260506161059 | 42 | 0 | 0.0 | 2.6 | 0.00 | 0.00 | 0.00 | 90 | 1008.0 |
| 20260506160559 | 41 | 297 | 0.0 | 2.6 | 0.00 | 0.00 | 0.00 | 90 | 1007.9 |
| 20260506155600 | 41 | 294 | 1.7 | 3.5 | 0.00 | 0.00 | 0.00 | 90 | 1007.9 |
| 20260506155059 | 41 | 176 | 0.0 | 3.5 | 0.00 | 0.00 | 0.00 | 90 | 1007.9 |
| 20260506154605 | 41 | 25 | 0.9 | 2.6 | 0.00 | 0.00 | 0.00 | 89 | 1007.7 |
| 20260506154059 | 41 | 155 | 0.9 | 6.1 | 0.00 | 0.00 | 0.00 | 90 | 1007.9 |
| 20260506153559 | 41 | 155 | 0.9 | 6.1 | 0.00 | 0.00 | 0.00 | 90 | 1007.7 |
| 20260506153101 | 41 | 143 | 0.9 | 3.5 | 0.00 | 0.00 | 0.00 | 90 | 1007.3 |
| 20260506152558 | 41 | 172 | 0.9 | 3.5 | 0.00 | 0.00 | 0.00 | 90 | 1007.7 |
| 20260506152102 | 41 | 109 | 0.0 | 3.5 | 0.00 | 0.00 | 0.00 | 90 | 1007.5 |
| 20260506151558 | 40 | 113 | 0.0 | 3.5 | 0.00 | 0.00 | 0.00 | 90 | 1007.6 |
| 20260506151058 | 40 | 109 | 1.7 | 3.5 | 0.00 | 0.00 | 0.00 | 90 | 1007.8 |
| 20260506150601 | 40 | 36 | 0.9 | 3.5 | 0.00 | 0.00 | 0.00 | 90 | 1007.8 |
| 20260506150057 | 40 | 130 | 0.9 | 3.5 | 0.00 | 0.00 | 0.00 | 90 | 1008.0 |
| 20260506145601 | 40 | 88 | 0.9 | 2.6 | 0.00 | 0.00 | 0.00 | 90 | 1007.7 |
| 20260506145100 | 40 | 0 | 0.9 | 2.6 | 0.00 | 0.00 | 0.00 | 90 | 1007.9 |
| 20260506144600 | 40 | 0 | 0.9 | 2.6 | 0.00 | 0.00 | 0.00 | 90 | 1007.8 |
| 20260506144059 | 40 | 0 | 0.0 | 0.0 | 0.00 | 0.00 | 0.00 | 89 | 1008.0 |
| 20260506143559 | 40 | 0 | 0.0 | 0.9 | 0.00 | 0.00 | 0.00 | 89 | 1008.0 |
| 20260506143059 | 40 | 0 | 0.0 | 1.7 | 0.00 | 0.00 | 0.00 | 89 | 1007.9 |
| 20260506142559 | 40 | 0 | 0.0 | 1.7 | 0.00 | 0.00 | 0.00 | 89 | 1008.0 |
| 20260506142058 | 40 | 360 | 0.0 | 0.9 | 0.00 | 0.00 | 0.00 | 89 | 1007.9 |
| 20260506141558 | 40 | 360 | 0.0 | 1.7 | 0.00 | 0.00 | 0.00 | 90 | 1008.0 |
| 20260506141100 | 40 | 0 | 0.0 | 2.6 | 0.00 | 0.00 | 0.00 | 89 | 1007.9 |
| 20260506140601 | 40 | 0 | 0.9 | 3.5 | 0.00 | 0.00 | 0.00 | 89 | 1007.9 |
| 20260506135558 | 40 | 360 | 0.9 | 2.6 | 0.00 | 0.00 | 0.00 | 89 | 1007.8 |
| 20260506135058 | 40 | 340 | 0.9 | 2.6 | 0.00 | 0.00 | 0.00 | 89 | 1007.9 |
| 20260506134558 | 40 | 341 | 0.9 | 2.6 | 0.00 | 0.00 | 0.00 | 89 | 1007.8 |
| 20260506134058 | 39 | 341 | 1.7 | 4.3 | 0.00 | 0.00 | 0.00 | 89 | 1007.8 |
| 20260506133601 | 39 | 0 | 0.9 | 4.3 | 0.00 | 0.00 | 0.00 | 89 | 1007.8 |
| 20260506133102 | 40 | 352 | 0.0 | 4.3 | 0.00 | 0.00 | 0.00 | 89 | 1007.7 |
| 20260506132558 | 39 | 0 | 0.9 | 4.3 | 0.00 | 0.00 | 0.00 | 89 | 1007.7 |
| 20260506132058 | 39 | 331 | 0.9 | 2.6 | 0.00 | 0.00 | 0.00 | 89 | 1007.5 |
| 20260506131559 | 39 | 44 | 0.0 | 1.7 | 0.00 | 0.00 | 0.00 | 89 | 1007.6 |
| 20260506131058 | 39 | 45 | 0.0 | 3.5 | 0.00 | 0.00 | 0.00 | 89 | 1007.4 |
| 20260506130559 | 39 | 46 | 0.9 | 5.2 | 0.00 | 0.00 | 0.00 | 88 | 1007.5 |
| 20260506125557 | 39 | 116 | 1.7 | 6.1 | 0.00 | 0.00 | 0.00 | 88 | 1007.5 |
| 20260506125058 | 39 | 90 | 1.7 | 6.1 | 0.00 | 0.00 | 0.00 | 88 | 1007.7 |
| 20260506124559 | 39 | 0 | 0.9 | 6.1 | 0.00 | 0.00 | 0.00 | 88 | 1007.7 |
| 20260506124101 | 39 | 126 | 1.7 | 6.1 | 0.00 | 0.00 | 0.00 | 88 | 1007.8 |
| 20260506123558 | 39 | 0 | 0.0 | 3.5 | 0.00 | 0.00 | 0.00 | 88 | 1007.9 |
| 20260506123056 | 39 | 169 | 0.9 | 7.8 | 0.00 | 0.00 | 0.00 | 88 | 1007.9 |
| 20260506122558 | 39 | 59 | 2.6 | 7.8 | 0.00 | 0.00 | 0.00 | 88 | 1008.0 |
| 20260506122059 | 39 | 84 | 0.9 | 5.2 | 0.00 | 0.00 | 0.00 | 88 | 1008.1 |
| 20260506121606 | 39 | 130 | 0.9 | 6.1 | 0.00 | 0.00 | 0.00 | 89 | 1008.0 |
| 20260506121058 | 39 | 38 | 1.7 | 7.0 | 0.00 | 0.00 | 0.00 | 88 | 1008.0 |
| 20260506120558 | 39 | 101 | 2.6 | 7.0 | 0.00 | 0.00 | 0.00 | 88 | 1008.2 |
| 20260506120110 | 39 | 46 | 2.6 | 7.0 | 0.00 | 0.00 | 0.00 | 88 | 1008.4 |
| 20260506115557 | 39 | 360 | 0.0 | 1.7 | 0.00 | 0.00 | 0.00 | 88 | 1008.6 |
| 20260506115058 | 39 | 343 | 0.0 | 2.6 | 0.00 | 0.00 | 0.00 | 88 | 1008.6 |
| 20260506114619 | 39 | 0 | 0.9 | 4.3 | 0.00 | 0.00 | 0.00 | 88 | 1008.8 |
| 20260506114058 | 40 | 0 | 1.7 | 6.1 | 0.00 | 0.00 | 0.00 | 88 | 1008.8 |
| 20260506113558 | 40 | 352 | 0.0 | 6.1 | 0.00 | 0.00 | 0.00 | 88 | 1009.0 |
| 20260506113057 | 40 | 352 | 2.6 | 7.0 | 0.00 | 0.00 | 0.00 | 88 | 1009.2 |
| 20260506112601 | 40 | 327 | 0.9 | 7.0 | 0.00 | 0.00 | 0.00 | 88 | 1009.4 |
| 20260506112058 | 40 | 331 | 2.6 | 7.0 | 0.00 | 0.00 | 0.00 | 88 | 1009.3 |
| 20260506111557 | 40 | 265 | 0.9 | 3.5 | 0.00 | 0.00 | 0.00 | 88 | 1009.1 |
| 20260506111058 | 40 | 300 | 0.9 | 7.0 | 0.00 | 0.00 | 0.00 | 88 | 1009.0 |
| 20260506110601 | 40 | 278 | 0.9 | 7.0 | 0.00 | 0.00 | 0.00 | 88 | 1008.7 |
| 20260506110058 | 40 | 53 | 1.7 | 7.0 | 0.00 | 0.00 | 0.00 | 88 | 1008.6 |
| 20260506105601 | 40 | 0 | 0.9 | 5.2 | 0.00 | 0.00 | 0.00 | 88 | 1008.5 |
| 20260506105058 | 40 | 130 | 0.0 | 5.2 | 0.00 | 0.00 | 0.00 | 88 | 1008.5 |
| 20260506104558 | 40 | 96 | 0.9 | 2.6 | 0.00 | 0.00 | 0.00 | 88 | 1008.5 |
| 20260506104058 | 40 | 86 | 0.0 | 2.6 | 0.00 | 0.00 | 0.00 | 88 | 1008.5 |
| 20260506103557 | 41 | 0 | 0.0 | 2.6 | 0.00 | 0.00 | 0.00 | 89 | 1008.6 |
| 20260506103057 | 41 | 129 | 0.9 | 2.6 | 0.00 | 0.00 | 0.00 | 89 | 1008.8 |
| 20260506102558 | 41 | 130 | 0.9 | 2.6 | 0.00 | 0.00 | 0.00 | 88 | 1008.8 |
| 20260506102059 | 41 | 53 | 0.9 | 2.6 | 0.00 | 0.00 | 0.00 | 88 | 1008.5 |
| 20260506101557 | 41 | 53 | 0.0 | 2.6 | 0.00 | 0.00 | 0.00 | 88 | 1008.7 |
| 20260506101054 | 41 | 0 | 0.0 | 3.5 | 0.00 | 0.00 | 0.00 | 88 | 1008.7 |
| 20260506100558 | 41 | 306 | 0.0 | 7.0 | 0.00 | 0.00 | 0.00 | 88 | 1008.7 |
| 20260506100056 | 41 | 325 | 1.7 | 7.0 | 0.00 | 0.00 | 0.00 | 88 | 1008.5 |
| 20260506095558 | 41 | 337 | 0.9 | 6.1 | 0.00 | 0.00 | 0.00 | 88 | 1008.5 |
| 20260506095057 | 41 | 352 | 1.7 | 6.1 | 0.00 | 0.00 | 0.00 | 88 | 1008.5 |
| 20260506094557 | 42 | 9 | 0.9 | 4.3 | 0.00 | 0.00 | 0.00 | 88 | 1008.5 |
| 20260506094057 | 42 | 290 | 0.9 | 3.5 | 0.00 | 0.00 | 0.00 | 88 | 1008.6 |
| 20260506093558 | 42 | 0 | 0.9 | 3.5 | 0.00 | 0.00 | 0.00 | 88 | 1008.5 |
| 20260506093110 | 42 | 5 | 0.9 | 3.5 | 0.00 | 0.00 | 0.00 | 88 | 1008.6 |
| 20260506092558 | 42 | 0 | 0.9 | 3.5 | 0.00 | 0.00 | 0.00 | 89 | 1008.8 |
| 20260506092058 | 42 | 279 | 0.9 | 3.5 | 0.00 | 0.00 | 0.00 | 89 | 1009.0 |
| 20260506091557 | 42 | 71 | 0.9 | 3.5 | 0.00 | 0.00 | 0.00 | 88 | 1009.0 |
| 20260506091057 | 42 | 259 | 0.9 | 7.0 | 0.00 | 0.00 | 0.00 | 89 | 1008.8 |
| 20260506090557 | 42 | 35 | 1.7 | 7.0 | 0.00 | 0.00 | 0.00 | 89 | 1008.6 |
| 20260506090112 | 43 | 21 | 1.7 | 5.2 | 0.00 | 0.00 | 0.00 | 89 | 1008.9 |
| 20260506085558 | 44 | 336 | 2.6 | 5.2 | 0.00 | 0.00 | 0.00 | 90 | 1008.8 |
| 20260506085058 | 44 | 311 | 0.9 | 4.3 | 0.00 | 0.00 | 0.00 | 90 | 1008.6 |
| 20260506084557 | 44 | 331 | 0.9 | 6.1 | 0.00 | 0.00 | 0.00 | 90 | 1008.6 |
| 20260506084058 | 44 | 42 | 2.6 | 6.1 | 0.00 | 0.00 | 0.00 | 90 | 1008.9 |
| 20260506083600 | 44 | 283 | 0.9 | 2.6 | 0.00 | 0.00 | 0.00 | 90 | 1009.3 |
| 20260506083057 | 44 | 315 | 0.0 | 2.6 | 0.00 | 0.00 | 0.00 | 90 | 1008.7 |
| 20260506082601 | 44 | 315 | 0.0 | 2.6 | 0.00 | 0.00 | 0.00 | 90 | 1008.7 |
| 20260506082058 | 44 | 0 | 0.9 | 2.6 | 0.00 | 0.00 | 0.00 | 90 | 1008.8 |
| 20260506081555 | 44 | 0 | 0.0 | 2.6 | 0.00 | 0.00 | 0.00 | 90 | 1008.7 |
| 20260506081058 | 44 | 309 | 0.9 | 2.6 | 0.00 | 0.00 | 0.00 | 90 | 1008.9 |
| 20260506080558 | 44 | 327 | 0.0 | 1.7 | 0.00 | 0.00 | 0.00 | 90 | 1009.0 |
| 20260506080111 | 44 | 14 | 0.0 | 2.6 | 0.00 | 0.00 | 0.00 | 90 | 1008.7 |
| 20260506073111 | 44 | 305 | 0.0 | 2.6 | 0.00 | 0.00 | 0.00 | 89 | 1009.0 |
| 20260506072601 | 44 | 0 | 0.9 | 2.6 | 0.00 | 0.00 | 0.00 | 89 | 1009.1 |
| 20260506072058 | 44 | 350 | 0.9 | 2.6 | 0.00 | 0.00 | 0.00 | 90 | 1009.3 |
| 20260506071600 | 44 | 0 | 0.0 | 3.5 | 0.00 | 0.00 | 0.00 | 89 | 1009.1 |
| 20260506071058 | 44 | 350 | 0.9 | 3.5 | 0.00 | 0.00 | 0.00 | 89 | 1009.0 |
| 20260506070558 | 44 | 0 | 0.9 | 3.5 | 0.00 | 0.00 | 0.00 | 89 | 1009.1 |
| 20260506070104 | 44 | 327 | 0.9 | 3.5 | 0.00 | 0.00 | 0.00 | 89 | 1009.3 |
| 20260506062057 | 45 | 0 | 2.6 | 5.2 | 0.00 | 0.00 | 0.00 | 90 | 1009.3 |
| 20260506061057 | 45 | 268 | 0.9 | 3.5 | 0.00 | 0.00 | 0.00 | 90 | 1009.8 |
| 20260506060558 | 45 | 269 | 0.9 | 3.5 | 0.00 | 0.00 | 0.00 | 90 | 1009.6 |
| 20260506060112 | 45 | 302 | 0.9 | 2.6 | 0.00 | 0.00 | 0.00 | 90 | 1009.8 |
| 20260506051058 | 45 | 0 | 0.9 | 3.5 | 0.00 | 0.00 | 0.00 | 89 | 1009.5 |
| 20260506050558 | 45 | 0 | 0.9 | 3.5 | 0.00 | 0.00 | 0.00 | 89 | 1009.8 |
| 20260506045058 | 45 | 292 | 0.9 | 5.2 | 0.00 | 0.00 | 0.00 | 89 | 1010.1 |
| 20260506044608 | 45 | 331 | 1.7 | 7.8 | 0.00 | 0.00 | 0.00 | 89 | 1010.0 |
| 20260506044057 | 45 | 266 | 1.7 | 7.8 | 0.00 | 0.00 | 0.00 | 89 | 1010.5 |
| 20260506043600 | 46 | 239 | 1.7 | 7.0 | 0.00 | 0.00 | 0.00 | 89 | 1010.3 |
| 20260506043058 | 46 | 252 | 2.6 | 7.0 | 0.00 | 0.00 | 0.00 | 89 | 1010.2 |
| 20260506042557 | 46 | 261 | 2.6 | 7.0 | 0.00 | 0.00 | 0.00 | 89 | 1010.0 |
| 20260506042058 | 47 | 328 | 1.7 | 7.0 | 0.00 | 0.00 | 0.00 | 89 | 1010.4 |
| 20260506041609 | 47 | 0 | 1.7 | 6.1 | 0.00 | 0.00 | 0.00 | 89 | 1010.5 |
| 20260506041059 | 47 | 254 | 1.7 | 5.2 | 0.00 | 0.00 | 0.00 | 89 | 1010.3 |